Location: Unspecified
(40.7945°N, 111.1337°W)
Time: 12:41:55
(UTC-06:00)

Resurs 1-4 Rocket - Pass Details

Date: 30 March 2019
Orbit: 800 x 814 km, 98.6° (Epoch: 15 October)

Event Time Altitude Azimuth Distance (km) Brightness Sun altitude
Rises 04:17:11 0° 1° (N) 3,328 5.8 -31.2°
Reaches altitude 10° 04:19:52 10° 349° (N) 2,390 4.8 -30.8°
Enters shadow 04:21:46 19° 332° (NNW) 1,855 4.0 -30.6°
